Time,TemperatureF,DewpointF,PressureIn,WindDirection,WindDirectionDegrees,WindSpeedMPH,WindSpeedGustMPH,Humidity,HourlyPrecipIn,Conditions,Clouds,dailyrainin,SolarRadiationWatts/m^2,SoftwareType,DateUTC
2013-09-17 00:02:00,81.5,75.8,29.99,East,81,5.0,8.0,83,0.00,,,0.00,0,Wunderground v.1.15,2013-09-17 04:02:00,
2013-09-17 00:08:00,81.5,75.8,29.99,East,90,5.0,8.0,83,0.00,,,0.00,0,Wunderground v.1.15,2013-09-17 04:08:00,
2013-09-17 00:10:00,81.5,75.8,29.99,East,86,5.0,5.0,83,0.00,,,0.00,0,Wunderground v.1.15,2013-09-17 04:10:00,
2013-09-17 00:12:00,81.5,75.8,29.99,ESE,113,5.0,10.0,83,0.00,,,0.00,0,Wunderground v.1.15,2013-09-17 04:12:00,
2013-09-17 00:18:00,81.4,75.4,29.99,East,88,5.0,10.0,82,0.00,,,0.00,0,Wunderground v.1.15,2013-09-17 04:18:00,
2013-09-17 00:20:00,81.3,75.3,29.99,East,87,6.0,6.0,82,0.00,,,0.00,0,Wunderground v.1.15,2013-09-17 04:20:00,
2013-09-17 00:24:00,81.2,75.5,29.99,ENE,72,5.0,7.0,83,0.00,,,0.00,0,Wunderground v.1.15,2013-09-17 04:24:00,
2013-09-17 00:30:00,81.2,75.5,29.99,ENE,57,5.0,5.0,83,0.00,,,0.00,0,Wunderground v.1.15,2013-09-17 04:30:00,
2013-09-17 00:36:00,81.2,75.9,29.99,East,88,5.0,7.0,84,0.00,,,0.00,0,Wunderground v.1.15,2013-09-17 04:36:00,
2013-09-17 00:42:00,81.1,75.8,29.99,East,82,6.0,9.0,84,0.00,,,0.00,0,Wunderground v.1.15,2013-09-17 04:42:00,
2013-09-17 00:48:00,81.1,75.8,29.98,NE,36,6.0,9.0,84,0.00,,,0.00,0,Wunderground v.1.15,2013-09-17 04:48:00,
2013-09-17 00:54:00,81.0,75.7,29.98,SE,129,6.0,8.0,84,0.00,,,0.00,0,Wunderground v.1.15,2013-09-17 04:54:00,
2013-09-17 01:00:00,81.0,75.7,29.98,ENE,72,6.0,6.0,84,0.00,,,0.00,0,Wunderground v.1.15,2013-09-17 05:00:00,
2013-09-17 01:06:00,80.9,75.6,29.97,ESE,119,5.0,12.0,84,0.00,,,0.00,0,Wunderground v.1.15,2013-09-17 05:06:00,
2013-09-17 01:12:00,80.9,75.6,29.97,East,101,5.0,7.0,84,0.00,,,0.00,0,Wunderground v.1.15,2013-09-17 05:12:00,
2013-09-17 01:18:00,80.9,75.6,29.97,East,86,4.0,8.0,84,0.00,,,0.00,0,Wunderground v.1.15,2013-09-17 05:18:00,
2013-09-17 01:24:00,80.9,75.6,29.97,ENE,67,6.0,8.0,84,0.00,,,0.00,0,Wunderground v.1.15,2013-09-17 05:24:00,
2013-09-17 01:30:00,80.9,76.0,29.97,East,94,4.0,4.0,85,0.00,,,0.00,0,Wunderground v.1.15,2013-09-17 05:30:00,
2013-09-17 01:36:00,80.8,75.9,29.96,East,79,4.0,7.0,85,0.00,,,0.00,0,Wunderground v.1.15,2013-09-17 05:36:00,
2013-09-17 01:42:00,80.8,75.9,29.96,East,84,4.0,6.0,85,0.00,,,0.00,0,Wunderground v.1.15,2013-09-17 05:42:00,
2013-09-17 01:48:00,80.9,76.0,29.96,East,90,3.0,11.0,85,0.00,,,0.00,0,Wunderground v.1.15,2013-09-17 05:48:00,
2013-09-17 01:54:00,80.8,75.5,29.96,East,84,5.0,5.0,84,0.00,,,0.00,0,Wunderground v.1.15,2013-09-17 05:54:00,
2013-09-17 02:00:00,80.8,75.5,29.96,ENE,78,4.0,9.0,84,0.00,,,0.00,0,Wunderground v.1.15,2013-09-17 06:00:00,
2013-09-17 02:06:00,80.8,75.2,29.96,East,92,6.0,9.0,83,0.00,,,0.00,0,Wunderground v.1.15,2013-09-17 06:06:00,
2013-09-17 02:12:00,80.8,75.5,29.96,East,88,6.0,7.0,84,0.00,,,0.00,0,Wunderground v.1.15,2013-09-17 06:12:00,
2013-09-17 02:18:00,80.8,75.5,29.95,East,90,3.0,7.0,84,0.00,,,0.00,0,Wunderground v.1.15,2013-09-17 06:18:00,
2013-09-17 02:24:00,80.7,75.4,29.95,East,101,2.0,6.0,84,0.00,,,0.00,0,Wunderground v.1.15,2013-09-17 06:24:00,
2013-09-17 02:30:00,80.7,75.4,29.95,East,90,4.0,11.0,84,0.00,,,0.00,0,Wunderground v.1.15,2013-09-17 06:30:00,
2013-09-17 02:36:00,80.7,75.8,29.96,East,100,5.0,11.0,85,0.00,,,0.00,0,Wunderground v.1.15,2013-09-17 06:36:00,
2013-09-17 02:42:00,80.8,75.9,29.95,ENE,76,3.0,7.0,85,0.00,,,0.00,0,Wunderground v.1.15,2013-09-17 06:42:00,
2013-09-17 02:48:00,80.9,76.3,29.95,ENE,67,3.0,7.0,86,0.00,,,0.00,0,Wunderground v.1.15,2013-09-17 06:48:00,
2013-09-17 02:54:00,80.6,75.3,29.95,East,86,6.0,10.0,84,0.00,,,0.00,0,Wunderground v.1.15,2013-09-17 06:54:00,
2013-09-17 03:00:00,80.0,74.4,29.95,SE,134,6.0,6.0,83,0.00,,,0.00,0,Wunderground v.1.15,2013-09-17 07:00:00,
2013-09-17 03:06:00,79.4,73.1,29.95,East,98,5.0,6.0,81,0.00,,,0.00,0,Wunderground v.1.15,2013-09-17 07:06:00,
2013-09-17 03:12:00,78.9,72.2,29.95,ESE,119,4.0,4.0,80,0.00,,,0.00,0,Wunderground v.1.15,2013-09-17 07:12:00,
2013-09-17 03:18:00,79.1,72.0,29.94,ESE,114,4.0,9.0,79,0.00,,,0.00,0,Wunderground v.1.15,2013-09-17 07:18:00,
2013-09-17 03:24:00,79.4,71.9,29.94,ESE,123,2.0,4.0,78,0.00,,,0.00,0,Wunderground v.1.15,2013-09-17 07:24:00,
2013-09-17 03:30:00,79.8,73.1,29.94,ESE,103,1.0,1.0,80,0.00,,,0.00,0,Wunderground v.1.15,2013-09-17 07:30:00,
2013-09-17 03:36:00,80.3,75.0,29.93,East,98,2.0,8.0,84,0.00,,,0.00,0,Wunderground v.1.15,2013-09-17 07:36:00,
2013-09-17 03:42:00,80.6,76.0,29.93,ESE,105,3.0,4.0,86,0.00,,,0.00,0,Wunderground v.1.15,2013-09-17 07:42:00,
2013-09-17 03:48:00,80.8,76.2,29.94,SE,138,2.0,10.0,86,0.00,,,0.00,0,Wunderground v.1.15,2013-09-17 07:48:00,
2013-09-17 03:54:00,80.7,76.5,29.94,SSE,151,3.0,7.0,87,0.00,,,0.00,0,Wunderground v.1.15,2013-09-17 07:54:00,
2013-09-17 04:02:00,80.3,75.7,29.94,SE,137,1.0,1.0,86,0.00,,,0.00,0,Wunderground v.1.15,2013-09-17 08:02:00,
2013-09-17 04:08:00,80.3,75.7,29.94,ESE,109,1.0,1.0,86,0.00,,,0.00,0,Wunderground v.1.15,2013-09-17 08:08:00,
2013-09-17 04:14:00,80.5,75.9,29.94,ENE,71,1.0,8.0,86,0.00,,,0.00,0,Wunderground v.1.15,2013-09-17 08:14:00,
2013-09-17 04:20:00,80.6,76.0,29.94,SE,126,1.0,1.0,86,0.00,,,0.00,0,Wunderground v.1.15,2013-09-17 08:20:00,
2013-09-17 04:26:00,80.7,76.1,29.94,East,100,2.0,6.0,86,0.00,,,0.00,0,Wunderground v.1.15,2013-09-17 08:26:00,
2013-09-17 04:32:00,80.7,75.8,29.94,ESE,123,2.0,2.0,85,0.00,,,0.00,0,Wunderground v.1.15,2013-09-17 08:32:00,
2013-09-17 04:38:00,80.7,75.8,29.94,ESE,107,1.0,2.0,85,0.00,,,0.00,0,Wunderground v.1.15,2013-09-17 08:38:00,
2013-09-17 04:44:00,80.9,76.0,29.93,ESE,117,1.0,4.0,85,0.00,,,0.00,0,Wunderground v.1.15,2013-09-17 08:44:00,
2013-09-17 04:50:00,81.0,76.1,29.93,SE,126,1.0,1.0,85,0.00,,,0.00,0,Wunderground v.1.15,2013-09-17 08:50:00,
2013-09-17 04:56:00,81.0,76.1,29.93,East,101,0.0,1.0,85,0.00,,,0.00,0,Wunderground v.1.15,2013-09-17 08:56:00,
2013-09-17 05:02:00,80.9,75.6,29.93,ESE,118,1.0,8.0,84,0.00,,,0.00,0,Wunderground v.1.15,2013-09-17 09:02:00,
2013-09-17 05:08:00,80.9,75.2,29.93,SE,139,1.0,8.0,83,0.00,,,0.00,0,Wunderground v.1.15,2013-09-17 09:08:00,
2013-09-17 05:14:00,81.0,75.3,29.93,ESE,110,0.0,8.0,83,0.00,,,0.00,0,Wunderground v.1.15,2013-09-17 09:14:00,
2013-09-17 05:20:00,81.1,75.4,29.93,ESE,103,1.0,1.0,83,0.00,,,0.00,0,Wunderground v.1.15,2013-09-17 09:20:00,
2013-09-17 05:26:00,81.1,75.4,29.93,SE,128,1.0,8.0,83,0.00,,,0.00,0,Wunderground v.1.15,2013-09-17 09:26:00,
2013-09-17 05:32:00,81.1,75.1,29.93,SE,128,1.0,8.0,82,0.00,,,0.00,0,Wunderground v.1.15,2013-09-17 09:32:00,
2013-09-17 05:38:00,81.3,75.6,29.93,ESE,114,1.0,8.0,83,0.00,,,0.00,0,Wunderground v.1.15,2013-09-17 09:38:00,
2013-09-17 05:44:00,81.3,75.6,29.93,ESE,115,0.0,8.0,83,0.00,,,0.00,0,Wunderground v.1.15,2013-09-17 09:44:00,
2013-09-17 05:50:00,81.3,75.6,29.93,ESE,106,1.0,1.0,83,0.00,,,0.00,0,Wunderground v.1.15,2013-09-17 09:50:00,
2013-09-17 05:56:00,81.4,76.1,29.94,SE,129,1.0,8.0,84,0.00,,,0.00,0,Wunderground v.1.15,2013-09-17 09:56:00,
2013-09-17 06:02:00,81.5,76.6,29.94,SE,126,1.0,3.0,85,0.00,,,0.00,0,Wunderground v.1.15,2013-09-17 10:02:00,
2013-09-17 06:08:00,81.4,76.1,29.94,East,87,1.0,3.0,84,0.00,,,0.00,0,Wunderground v.1.15,2013-09-17 10:08:00,
2013-09-17 06:14:00,81.4,76.1,29.95,ESE,106,1.0,5.0,84,0.00,,,0.00,0,Wunderground v.1.15,2013-09-17 10:14:00,
2013-09-17 06:20:00,81.3,75.6,29.95,East,101,1.0,1.0,83,0.00,,,0.00,0,Wunderground v.1.15,2013-09-17 10:20:00,
2013-09-17 06:26:00,81.4,75.7,29.95,ESE,107,0.0,1.0,83,0.00,,,0.00,0,Wunderground v.1.15,2013-09-17 10:26:00,
2013-09-17 06:32:00,81.3,75.6,29.95,ESE,103,0.0,0.0,83,0.00,,,0.00,0,Wunderground v.1.15,2013-09-17 10:32:00,
2013-09-17 06:38:00,81.3,75.6,29.95,East,96,0.0,0.0,83,0.00,,,0.00,0,Wunderground v.1.15,2013-09-17 10:38:00,
2013-09-17 06:44:00,81.2,75.5,29.95,East,93,0.0,0.0,83,0.00,,,0.00,0,Wunderground v.1.15,2013-09-17 10:44:00,
2013-09-17 06:50:00,81.1,75.4,29.95,East,96,0.0,0.0,83,0.00,,,0.00,0,Wunderground v.1.15,2013-09-17 10:50:00,
2013-09-17 06:56:00,81.2,75.5,29.95,ENE,75,0.0,1.0,83,0.00,,,0.00,0,Wunderground v.1.15,2013-09-17 10:56:00,
2013-09-17 07:02:00,81.2,75.5,29.95,East,84,0.0,0.0,83,0.00,,,0.00,0,Wunderground v.1.15,2013-09-17 11:02:00,
2013-09-17 07:08:00,81.1,75.4,29.95,NE,51,0.0,0.0,83,0.00,,,0.00,0,Wunderground v.1.15,2013-09-17 11:08:00,
2013-09-17 07:14:00,81.1,75.4,29.95,NE,51,0.0,0.0,83,0.00,,,0.00,7,Wunderground v.1.15,2013-09-17 11:14:00,
2013-09-17 07:20:00,81.0,75.3,29.96,NE,51,0.0,0.0,83,0.00,,,0.00,9,Wunderground v.1.15,2013-09-17 11:20:00,
2013-09-17 07:26:00,81.0,75.7,29.96,NE,51,0.0,0.0,84,0.00,,,0.00,11,Wunderground v.1.15,2013-09-17 11:26:00,
2013-09-17 07:32:00,81.0,75.7,29.96,NE,51,0.0,0.0,84,0.00,,,0.00,16,Wunderground v.1.15,2013-09-17 11:32:00,
2013-09-17 07:38:00,81.0,75.7,29.96,NE,51,0.0,0.0,84,0.00,,,0.00,28,Wunderground v.1.15,2013-09-17 11:38:00,
2013-09-17 07:44:00,81.1,76.2,29.97,ENE,78,0.0,0.0,85,0.00,,,0.00,49,Wunderground v.1.15,2013-09-17 11:44:00,
2013-09-17 07:50:00,81.2,76.3,29.97,SE,128,0.0,0.0,85,0.00,,,0.00,63,Wunderground v.1.15,2013-09-17 11:50:00,
2013-09-17 07:56:00,81.5,76.6,29.97,ENE,63,0.0,0.0,85,0.00,,,0.00,113,Wunderground v.1.15,2013-09-17 11:56:00,
2013-09-17 08:02:00,81.7,76.7,29.97,ENE,66,0.0,0.0,85,0.00,,,0.00,98,Wunderground v.1.15,2013-09-17 12:02:00,
2013-09-17 08:08:00,81.9,76.6,29.97,ENE,67,0.0,0.0,84,0.00,,,0.00,104,Wunderground v.1.15,2013-09-17 12:08:00,
2013-09-17 08:14:00,82.1,76.8,29.97,NE,44,0.0,0.0,84,0.00,,,0.00,88,Wunderground v.1.15,2013-09-17 12:14:00,
2013-09-17 08:20:00,82.2,76.9,29.97,NE,44,0.0,0.0,84,0.00,,,0.00,93,Wunderground v.1.15,2013-09-17 12:20:00,
2013-09-17 08:26:00,82.3,77.3,29.98,NE,44,0.0,0.0,85,0.00,,,0.00,88,Wunderground v.1.15,2013-09-17 12:26:00,
2013-09-17 08:32:00,82.2,77.2,29.98,East,96,1.0,1.0,85,0.00,,,0.00,51,Wunderground v.1.15,2013-09-17 12:32:00,
2013-09-17 08:38:00,81.3,75.3,29.98,SSW,195,2.0,4.0,82,0.00,,,0.00,30,Wunderground v.1.15,2013-09-17 12:38:00,
2013-09-17 08:44:00,79.2,73.9,29.99,SE,138,8.0,10.0,84,2.00,,,0.12,11,Wunderground v.1.15,2013-09-17 12:44:00,
2013-09-17 08:50:00,76.6,72.8,30.00,SSE,148,11.0,11.0,88,5.10,,,0.37,12,Wunderground v.1.15,2013-09-17 12:50:00,
2013-09-17 08:56:00,75.3,71.8,30.00,SE,136,7.0,11.0,89,2.19,,,0.62,14,Wunderground v.1.15,2013-09-17 12:56:00,
2013-09-17 09:02:00,74.4,71.3,30.01,East,87,3.0,5.0,90,0.89,,,0.77,14,Wunderground v.1.15,2013-09-17 13:02:00,
2013-09-17 09:08:00,74.0,71.2,30.01,SSE,151,1.0,5.0,91,1.22,,,0.91,14,Wunderground v.1.15,2013-09-17 13:08:00,
2013-09-17 09:14:00,73.9,71.1,30.01,East,92,0.0,0.0,91,0.38,,,0.96,16,Wunderground v.1.15,2013-09-17 13:14:00,
2013-09-17 09:20:00,73.7,71.2,30.00,East,92,0.0,0.0,92,0.20,,,0.98,21,Wunderground v.1.15,2013-09-17 13:20:00,
2013-09-17 09:26:00,73.9,71.7,30.00,East,92,0.0,0.0,93,0.15,,,1.00,25,Wunderground v.1.15,2013-09-17 13:26:00,
2013-09-17 09:32:00,74.0,71.8,30.01,East,92,0.0,0.0,93,0.12,,,1.01,32,Wunderground v.1.15,2013-09-17 13:32:00,
2013-09-17 09:38:00,74.1,71.9,30.00,East,92,0.0,0.0,93,0.07,,,1.01,40,Wunderground v.1.15,2013-09-17 13:38:00,
2013-09-17 09:44:00,74.1,71.9,30.00,East,92,0.0,0.0,93,0.04,,,1.01,40,Wunderground v.1.15,2013-09-17 13:44:00,
2013-09-17 09:50:00,74.2,72.4,30.00,East,92,0.0,0.0,94,0.14,,,1.03,42,Wunderground v.1.15,2013-09-17 13:50:00,
2013-09-17 09:56:00,74.4,72.6,30.00,East,92,0.0,11.0,94,0.09,,,1.04,46,Wunderground v.1.15,2013-09-17 13:56:00,
2013-09-17 10:02:00,74.6,72.8,30.00,East,92,0.0,0.0,94,0.11,,,1.05,53,Wunderground v.1.15,2013-09-17 14:02:00,
2013-09-17 10:08:00,74.8,73.0,30.01,East,92,0.0,0.0,94,0.08,,,1.05,62,Wunderground v.1.15,2013-09-17 14:08:00,
2013-09-17 10:14:00,74.9,73.1,30.01,East,92,0.0,0.0,94,0.05,,,1.05,74,Wunderground v.1.15,2013-09-17 14:14:00,
2013-09-17 10:20:00,75.0,73.2,30.01,East,92,0.0,0.0,94,0.00,,,1.05,84,Wunderground v.1.15,2013-09-17 14:20:00,
2013-09-17 10:26:00,75.2,73.7,30.01,East,92,0.0,0.0,95,0.00,,,1.05,100,Wunderground v.1.15,2013-09-17 14:26:00,
2013-09-17 10:32:00,75.5,74.0,30.01,East,92,0.0,0.0,95,0.00,,,1.05,107,Wunderground v.1.15,2013-09-17 14:32:00,
2013-09-17 10:38:00,75.9,74.4,30.02,ENE,59,0.0,0.0,95,0.00,,,1.05,114,Wunderground v.1.15,2013-09-17 14:38:00,
2013-09-17 10:44:00,75.9,74.0,30.02,North,360,0.0,0.0,94,0.00,,,1.05,120,Wunderground v.1.15,2013-09-17 14:44:00,
2013-09-17 10:50:00,75.8,73.9,30.01,NNE,15,0.0,0.0,94,0.00,,,1.05,139,Wunderground v.1.15,2013-09-17 14:50:00,
2013-09-17 10:56:00,75.8,74.3,30.01,NNE,15,0.0,0.0,95,0.00,,,1.05,153,Wunderground v.1.15,2013-09-17 14:56:00,
2013-09-17 11:02:00,76.1,74.6,30.01,NNE,15,0.0,0.0,95,0.00,,,1.05,169,Wunderground v.1.15,2013-09-17 15:02:00,
2013-09-17 11:08:00,76.6,75.1,30.01,NNE,15,0.0,0.0,95,0.00,,,1.05,193,Wunderground v.1.15,2013-09-17 15:08:00,
2013-09-17 11:14:00,76.8,75.3,30.01,NNE,15,0.0,0.0,95,0.00,,,1.05,227,Wunderground v.1.15,2013-09-17 15:14:00,
2013-09-17 11:20:00,77.3,75.8,30.01,NNE,15,0.0,0.0,95,0.00,,,1.05,251,Wunderground v.1.15,2013-09-17 15:20:00,
2013-09-17 11:26:00,77.7,76.2,30.01,NNE,14,0.0,0.0,95,0.00,,,1.05,320,Wunderground v.1.15,2013-09-17 15:26:00,
2013-09-17 11:32:00,78.1,76.6,30.02,NNE,15,0.0,0.0,95,0.00,,,1.05,418,Wunderground v.1.15,2013-09-17 15:32:00,
2013-09-17 11:38:00,78.4,76.8,30.02,NNE,14,0.0,0.0,95,0.00,,,1.05,585,Wunderground v.1.15,2013-09-17 15:38:00,
2013-09-17 11:44:00,78.8,76.9,30.02,NNE,21,0.0,0.0,94,0.00,,,1.05,671,Wunderground v.1.15,2013-09-17 15:44:00,
2013-09-17 11:50:00,79.5,77.6,30.02,NE,43,0.0,0.0,94,0.00,,,1.05,577,Wunderground v.1.15,2013-09-17 15:50:00,
2013-09-17 11:56:00,80.0,77.1,30.02,NE,39,0.0,0.0,91,0.00,,,1.05,360,Wunderground v.1.15,2013-09-17 15:56:00,
2013-09-17 12:02:00,80.4,76.5,30.02,North,355,0.0,0.0,88,0.00,,,1.05,494,Wunderground v.1.15,2013-09-17 16:02:00,
2013-09-17 12:08:00,81.2,76.6,30.02,NE,49,1.0,1.0,86,0.00,,,1.05,814,Wunderground v.1.15,2013-09-17 16:08:00,
2013-09-17 12:14:00,82.1,76.8,30.02,NE,41,0.0,0.0,84,0.00,,,1.05,698,Wunderground v.1.15,2013-09-17 16:14:00,
2013-09-17 12:20:00,83.1,77.4,30.02,NE,40,0.0,4.0,83,0.00,,,1.05,666,Wunderground v.1.15,2013-09-17 16:20:00,
2013-09-17 12:26:00,83.9,77.4,30.02,NE,46,1.0,4.0,81,0.00,,,1.05,431,Wunderground v.1.15,2013-09-17 16:26:00,
2013-09-17 12:32:00,84.1,76.9,30.01,NE,55,0.0,5.0,79,0.00,,,1.05,332,Wunderground v.1.15,2013-09-17 16:32:00,
2013-09-17 12:38:00,83.6,77.1,30.01,NE,53,2.0,6.0,81,0.00,,,1.05,251,Wunderground v.1.15,2013-09-17 16:38:00,
2013-09-17 12:44:00,82.9,76.5,30.01,NE,41,4.0,5.0,81,0.00,,,1.05,341,Wunderground v.1.15,2013-09-17 16:44:00,
2013-09-17 12:50:00,82.5,76.8,30.00,NNE,22,4.0,4.0,83,0.00,,,1.05,536,Wunderground v.1.15,2013-09-17 16:50:00,
2013-09-17 12:56:00,82.9,77.2,30.00,NE,34,2.0,4.0,83,0.00,,,1.05,1260,Wunderground v.1.15,2013-09-17 16:56:00,
2013-09-17 13:02:00,83.9,77.8,30.00,NE,37,2.0,2.0,82,0.00,,,1.05,1074,Wunderground v.1.15,2013-09-17 17:02:00,
2013-09-17 13:08:00,84.6,77.4,30.00,ENE,57,3.0,3.0,79,0.00,,,1.05,708,Wunderground v.1.15,2013-09-17 17:08:00,
2013-09-17 13:14:00,84.7,77.8,30.00,NNE,28,4.0,6.0,80,0.00,,,1.05,636,Wunderground v.1.15,2013-09-17 17:14:00,
2013-09-17 13:20:00,83.9,76.3,30.00,NNE,24,5.0,5.0,78,0.00,,,1.05,374,Wunderground v.1.15,2013-09-17 17:20:00,
2013-09-17 13:26:00,83.5,76.3,29.99,NNE,24,5.0,7.0,79,0.00,,,1.05,362,Wunderground v.1.15,2013-09-17 17:26:00,
2013-09-17 13:32:00,83.0,75.4,30.00,North,5,4.0,5.0,78,0.00,,,1.05,158,Wunderground v.1.15,2013-09-17 17:32:00,
2013-09-17 13:38:00,82.6,75.4,29.99,NNE,24,4.0,5.0,79,0.00,,,1.05,139,Wunderground v.1.15,2013-09-17 17:38:00,
2013-09-17 13:44:00,82.3,75.1,29.99,NE,51,2.0,3.0,79,0.00,,,1.05,100,Wunderground v.1.15,2013-09-17 17:44:00,
2013-09-17 13:50:00,81.9,75.1,29.98,ENE,59,2.0,3.0,80,0.00,,,1.05,67,Wunderground v.1.15,2013-09-17 17:50:00,
2013-09-17 13:56:00,81.2,75.5,29.98,ENE,60,3.0,8.0,83,0.00,,,1.05,125,Wunderground v.1.15,2013-09-17 17:56:00,
2013-09-17 14:02:00,80.8,75.5,29.99,ENE,74,3.0,3.0,84,0.00,,,1.05,72,Wunderground v.1.15,2013-09-17 18:02:00,
2013-09-17 14:08:00,80.5,75.2,29.98,ENE,75,3.0,7.0,84,0.00,,,1.05,134,Wunderground v.1.15,2013-09-17 18:08:00,
2013-09-17 14:14:00,80.4,75.1,29.98,NE,44,3.0,10.0,84,0.00,,,1.05,116,Wunderground v.1.15,2013-09-17 18:14:00,
2013-09-17 14:20:00,80.5,75.6,29.97,NE,56,2.0,2.0,85,0.00,,,1.05,127,Wunderground v.1.15,2013-09-17 18:20:00,
2013-09-17 14:26:00,80.2,75.3,29.97,NE,38,4.0,8.0,85,0.00,,,1.05,127,Wunderground v.1.15,2013-09-17 18:26:00,
2013-09-17 14:32:00,79.8,74.9,29.98,NE,49,3.0,4.0,85,0.00,,,1.05,123,Wunderground v.1.15,2013-09-17 18:32:00,
2013-09-17 14:38:00,79.7,74.8,29.97,North,9,1.0,4.0,85,0.00,,,1.05,120,Wunderground v.1.15,2013-09-17 18:38:00,
2013-09-17 14:44:00,79.7,75.1,29.97,NE,53,0.0,1.0,86,0.00,,,1.05,113,Wunderground v.1.15,2013-09-17 18:44:00,
2013-09-17 14:50:00,79.8,75.2,29.96,NNE,20,0.0,0.0,86,0.00,,,1.05,114,Wunderground v.1.15,2013-09-17 18:50:00,
2013-09-17 14:56:00,79.9,75.7,29.97,North,360,0.0,12.0,87,0.00,,,1.05,113,Wunderground v.1.15,2013-09-17 18:56:00,
2013-09-17 15:02:00,79.9,75.7,29.97,NNE,24,1.0,1.0,87,0.00,,,1.05,100,Wunderground v.1.15,2013-09-17 19:02:00,
2013-09-17 15:08:00,80.0,75.8,29.97,NNE,17,1.0,8.0,87,0.00,,,1.05,98,Wunderground v.1.15,2013-09-17 19:08:00,
2013-09-17 15:14:00,80.1,75.9,29.97,NNE,24,2.0,9.0,87,0.00,,,1.05,104,Wunderground v.1.15,2013-09-17 19:14:00,
2013-09-17 15:20:00,80.1,76.2,29.96,North,355,3.0,4.0,88,0.00,,,1.05,105,Wunderground v.1.15,2013-09-17 19:20:00,
2013-09-17 15:26:00,80.0,76.1,29.96,North,9,4.0,10.0,88,0.00,,,1.05,120,Wunderground v.1.15,2013-09-17 19:26:00,
2013-09-17 15:32:00,79.9,76.0,29.95,NNE,16,3.0,4.0,88,0.00,,,1.05,102,Wunderground v.1.15,2013-09-17 19:32:00,
2013-09-17 15:38:00,79.5,75.3,29.95,NE,46,4.0,9.0,87,0.00,,,1.05,72,Wunderground v.1.15,2013-09-17 19:38:00,
2013-09-17 15:44:00,79.2,75.3,29.95,NE,41,6.0,6.0,88,0.00,,,1.05,127,Wunderground v.1.15,2013-09-17 19:44:00,
2013-09-17 15:50:00,79.0,75.1,29.95,NE,38,4.0,4.0,88,0.00,,,1.06,141,Wunderground v.1.15,2013-09-17 19:50:00,
2013-09-17 15:56:00,78.9,75.0,29.95,NE,55,4.0,5.0,88,0.00,,,1.06,141,Wunderground v.1.15,2013-09-17 19:56:00,
2013-09-17 16:02:00,78.8,74.9,29.95,NNE,29,4.0,9.0,88,0.00,,,1.06,142,Wunderground v.1.15,2013-09-17 20:02:00,
2013-09-17 16:08:00,78.8,74.9,29.95,East,82,3.0,9.0,88,0.00,,,1.06,148,Wunderground v.1.15,2013-09-17 20:08:00,
2013-09-17 16:14:00,78.9,75.0,29.95,NNE,26,2.0,3.0,88,0.00,,,1.06,144,Wunderground v.1.15,2013-09-17 20:14:00,
2013-09-17 16:20:00,79.0,74.8,29.95,East,98,2.0,2.0,87,0.00,,,1.06,158,Wunderground v.1.15,2013-09-17 20:20:00,
2013-09-17 16:26:00,79.1,74.9,29.95,NNE,25,4.0,10.0,87,0.00,,,1.06,151,Wunderground v.1.15,2013-09-17 20:26:00,
2013-09-17 16:32:00,79.1,74.9,29.94,NNE,12,5.0,7.0,87,0.00,,,1.06,160,Wunderground v.1.15,2013-09-17 20:32:00,
2013-09-17 16:38:00,78.9,74.4,29.94,NE,46,6.0,7.0,86,0.00,,,1.06,158,Wunderground v.1.15,2013-09-17 20:38:00,
2013-09-17 16:44:00,78.7,73.5,29.94,NNE,19,6.0,10.0,84,0.00,,,1.06,155,Wunderground v.1.15,2013-09-17 20:44:00,
2013-09-17 16:50:00,78.8,73.9,29.94,ENE,58,6.0,11.0,85,0.00,,,1.06,148,Wunderground v.1.15,2013-09-17 20:50:00,
2013-09-17 16:56:00,78.7,73.8,29.94,East,87,5.0,12.0,85,0.00,,,1.06,137,Wunderground v.1.15,2013-09-17 20:56:00,
2013-09-17 17:02:00,78.6,73.7,29.93,NE,39,4.0,7.0,85,0.00,,,1.06,123,Wunderground v.1.15,2013-09-17 21:02:00,
2013-09-17 17:08:00,78.6,73.4,29.93,ENE,67,4.0,8.0,84,0.00,,,1.06,105,Wunderground v.1.15,2013-09-17 21:08:00,
2013-09-17 17:14:00,78.7,73.1,29.93,NE,55,4.0,10.0,83,0.00,,,1.06,90,Wunderground v.1.15,2013-09-17 21:14:00,
2013-09-17 17:20:00,79.0,73.4,29.93,ENE,76,4.0,7.0,83,0.00,,,1.06,77,Wunderground v.1.15,2013-09-17 21:20:00,
2013-09-17 17:26:00,79.2,73.9,29.93,ENE,63,4.0,7.0,84,0.00,,,1.06,70,Wunderground v.1.15,2013-09-17 21:26:00,
2013-09-17 17:32:00,79.4,74.8,29.93,East,82,2.0,3.0,86,0.00,,,1.06,67,Wunderground v.1.15,2013-09-17 21:32:00,
2013-09-17 17:38:00,79.4,75.2,29.93,ENE,60,3.0,3.0,87,0.00,,,1.06,67,Wunderground v.1.15,2013-09-17 21:38:00,
2013-09-17 17:44:00,79.4,75.2,29.93,NE,52,3.0,5.0,87,0.00,,,1.06,70,Wunderground v.1.15,2013-09-17 21:44:00,
2013-09-17 17:50:00,79.4,75.5,29.93,NE,42,4.0,5.0,88,0.00,,,1.06,67,Wunderground v.1.15,2013-09-17 21:50:00,
2013-09-17 17:56:00,79.2,75.3,29.93,NNE,30,5.0,10.0,88,0.00,,,1.06,70,Wunderground v.1.15,2013-09-17 21:56:00,
2013-09-17 18:02:00,79.0,75.1,29.93,NNE,19,5.0,5.0,88,0.00,,,1.06,65,Wunderground v.1.15,2013-09-17 22:02:00,
2013-09-17 18:10:00,78.9,74.7,29.93,NE,56,3.0,3.0,87,0.00,,,1.06,56,Wunderground v.1.15,2013-09-17 22:10:00,
2013-09-17 18:16:00,78.9,74.7,29.93,NNE,12,3.0,3.0,87,0.00,,,1.06,49,Wunderground v.1.15,2013-09-17 22:16:00,
2013-09-17 18:22:00,78.9,74.4,29.93,ENE,61,3.0,5.0,86,0.00,,,1.06,40,Wunderground v.1.15,2013-09-17 22:22:00,
2013-09-17 18:28:00,79.1,74.2,29.92,ENE,64,6.0,9.0,85,0.00,,,1.06,35,Wunderground v.1.15,2013-09-17 22:28:00,
2013-09-17 18:34:00,79.3,74.4,29.92,ENE,77,5.0,7.0,85,0.00,,,1.06,30,Wunderground v.1.15,2013-09-17 22:34:00,
2013-09-17 18:40:00,79.5,74.2,29.92,NE,49,5.0,5.0,84,0.00,,,1.06,28,Wunderground v.1.15,2013-09-17 22:40:00,
2013-09-17 18:46:00,79.6,74.7,29.92,ENE,61,5.0,6.0,85,0.00,,,1.06,28,Wunderground v.1.15,2013-09-17 22:46:00,
2013-09-17 18:52:00,79.7,75.1,29.92,East,92,5.0,6.0,86,0.00,,,1.06,26,Wunderground v.1.15,2013-09-17 22:52:00,
2013-09-17 18:58:00,79.7,75.5,29.91,NE,52,6.0,13.0,87,0.00,,,1.06,25,Wunderground v.1.15,2013-09-17 22:58:00,
2013-09-17 19:04:00,79.7,75.8,29.91,ENE,64,5.0,10.0,88,0.00,,,1.06,19,Wunderground v.1.15,2013-09-17 23:04:00,
2013-09-17 19:10:00,79.7,75.5,29.91,NNE,26,5.0,7.0,87,0.00,,,1.06,18,Wunderground v.1.15,2013-09-17 23:10:00,
2013-09-17 19:16:00,79.8,75.2,29.92,ENE,65,6.0,8.0,86,0.00,,,1.06,11,Wunderground v.1.15,2013-09-17 23:16:00,
2013-09-17 19:22:00,79.8,75.2,29.92,ENE,65,5.0,7.0,86,0.00,,,1.06,5,Wunderground v.1.15,2013-09-17 23:22:00,
2013-09-17 19:28:00,79.9,75.0,29.92,ENE,78,4.0,7.0,85,0.00,,,1.06,0,Wunderground v.1.15,2013-09-17 23:28:00,
2013-09-17 19:34:00,80.0,75.1,29.93,East,87,4.0,5.0,85,0.00,,,1.06,0,Wunderground v.1.15,2013-09-17 23:34:00,
2013-09-17 19:40:00,80.1,74.8,29.93,ENE,78,4.0,4.0,84,0.00,,,1.06,0,Wunderground v.1.15,2013-09-17 23:40:00,
2013-09-17 19:46:00,80.2,74.9,29.93,East,80,2.0,6.0,84,0.00,,,1.06,0,Wunderground v.1.15,2013-09-17 23:46:00,
2013-09-17 19:52:00,80.2,74.9,29.94,East,94,1.0,3.0,84,0.00,,,1.06,0,Wunderground v.1.15,2013-09-17 23:52:00,
2013-09-17 19:58:00,80.3,75.0,29.94,East,101,2.0,13.0,84,0.00,,,1.06,0,Wunderground v.1.15,2013-09-17 23:58:00,
2013-09-17 20:04:00,80.4,75.1,29.94,ENE,65,3.0,9.0,84,0.00,,,1.06,0,Wunderground v.1.15,2013-09-18 00:04:00,
2013-09-17 20:10:00,80.4,75.1,29.94,NE,53,2.0,6.0,84,0.00,,,1.06,0,Wunderground v.1.15,2013-09-18 00:10:00,
2013-09-17 20:16:00,80.6,75.3,29.94,East,82,4.0,8.0,84,0.00,,,1.06,0,Wunderground v.1.15,2013-09-18 00:16:00,
2013-09-17 20:22:00,80.7,75.4,29.94,ENE,63,4.0,5.0,84,0.00,,,1.06,0,Wunderground v.1.15,2013-09-18 00:22:00,
2013-09-17 20:28:00,80.8,75.5,29.94,ENE,78,3.0,8.0,84,0.00,,,1.06,0,Wunderground v.1.15,2013-09-18 00:28:00,
2013-09-17 20:34:00,80.9,75.6,29.94,East,80,3.0,3.0,84,0.00,,,1.06,0,Wunderground v.1.15,2013-09-18 00:34:00,
2013-09-17 20:40:00,80.9,75.6,29.95,ENE,69,2.0,2.0,84,0.00,,,1.06,0,Wunderground v.1.15,2013-09-18 00:40:00,
2013-09-17 20:46:00,81.0,75.7,29.95,NE,49,1.0,8.0,84,0.00,,,1.06,0,Wunderground v.1.15,2013-09-18 00:46:00,
2013-09-17 20:52:00,81.2,75.9,29.95,East,84,3.0,6.0,84,0.00,,,1.06,0,Wunderground v.1.15,2013-09-18 00:52:00,
2013-09-17 20:58:00,81.3,76.4,29.95,ENE,59,3.0,10.0,85,0.00,,,1.06,0,Wunderground v.1.15,2013-09-18 00:58:00,
2013-09-17 21:04:00,81.4,76.5,29.95,ENE,63,1.0,6.0,85,0.00,,,1.06,0,Wunderground v.1.15,2013-09-18 01:04:00,
2013-09-17 21:10:00,81.3,76.4,29.95,East,83,1.0,3.0,85,0.00,,,1.06,0,Wunderground v.1.15,2013-09-18 01:10:00,
2013-09-17 21:16:00,81.4,76.5,29.96,East,88,3.0,9.0,85,0.00,,,1.06,0,Wunderground v.1.15,2013-09-18 01:16:00,
2013-09-17 21:22:00,81.4,76.1,29.96,East,95,3.0,3.0,84,0.00,,,1.06,0,Wunderground v.1.15,2013-09-18 01:22:00,
2013-09-17 21:28:00,81.4,76.1,29.96,ENE,71,2.0,7.0,84,0.00,,,1.06,0,Wunderground v.1.15,2013-09-18 01:28:00,
2013-09-17 21:34:00,81.4,75.7,29.96,East,98,2.0,6.0,83,0.00,,,1.06,0,Wunderground v.1.15,2013-09-18 01:34:00,
2013-09-17 21:40:00,81.4,75.7,29.96,East,88,3.0,6.0,83,0.00,,,1.06,0,Wunderground v.1.15,2013-09-18 01:40:00,
2013-09-17 21:46:00,81.5,75.8,29.96,NE,49,4.0,9.0,83,0.00,,,1.06,0,Wunderground v.1.15,2013-09-18 01:46:00,
2013-09-17 21:52:00,81.5,76.2,29.96,ENE,58,2.0,7.0,84,0.00,,,1.06,0,Wunderground v.1.15,2013-09-18 01:52:00,
2013-09-17 21:58:00,81.5,76.2,29.96,ENE,66,1.0,9.0,84,0.00,,,1.06,0,Wunderground v.1.15,2013-09-18 01:58:00,
2013-09-17 22:04:00,81.4,76.1,29.96,ENE,65,3.0,8.0,84,0.00,,,1.06,0,Wunderground v.1.15,2013-09-18 02:04:00,
2013-09-17 22:10:00,81.5,76.2,29.97,ENE,69,4.0,4.0,84,0.00,,,1.06,0,Wunderground v.1.15,2013-09-18 02:10:00,
2013-09-17 22:16:00,81.6,76.6,29.97,East,88,4.0,4.0,85,0.00,,,1.06,0,Wunderground v.1.15,2013-09-18 02:16:00,
2013-09-17 22:22:00,81.6,76.6,29.97,ESE,110,2.0,2.0,85,0.00,,,1.06,0,Wunderground v.1.15,2013-09-18 02:22:00,
2013-09-17 22:28:00,81.5,76.6,29.97,ESE,113,1.0,5.0,85,0.00,,,1.06,0,Wunderground v.1.15,2013-09-18 02:28:00,
2013-09-17 22:34:00,81.6,76.3,29.96,ESE,115,4.0,9.0,84,0.00,,,1.06,0,Wunderground v.1.15,2013-09-18 02:34:00,
2013-09-17 22:40:00,81.5,76.2,29.96,East,101,3.0,3.0,84,0.00,,,1.06,0,Wunderground v.1.15,2013-09-18 02:40:00,
2013-09-17 22:46:00,81.5,76.6,29.96,ESE,106,1.0,5.0,85,0.00,,,1.06,0,Wunderground v.1.15,2013-09-18 02:46:00,
2013-09-17 22:52:00,81.4,76.5,29.96,ESE,123,1.0,1.0,85,0.00,,,1.06,0,Wunderground v.1.15,2013-09-18 02:52:00,
2013-09-17 22:58:00,81.4,76.5,29.96,ESE,107,1.0,5.0,85,0.00,,,1.06,0,Wunderground v.1.15,2013-09-18 02:58:00,
2013-09-17 23:04:00,81.3,76.4,29.96,ESE,106,0.0,0.0,85,0.00,,,1.06,0,Wunderground v.1.15,2013-09-18 03:04:00,
2013-09-17 23:10:00,81.2,76.3,29.96,ENE,73,1.0,1.0,85,0.00,,,1.06,0,Wunderground v.1.15,2013-09-18 03:10:00,
2013-09-17 23:16:00,81.1,75.8,29.96,East,83,2.0,6.0,84,0.00,,,1.06,0,Wunderground v.1.15,2013-09-18 03:16:00,
2013-09-17 23:22:00,81.3,76.0,29.96,East,84,2.0,6.0,84,0.00,,,1.06,0,Wunderground v.1.15,2013-09-18 03:22:00,
2013-09-17 23:28:00,81.4,76.1,29.96,ENE,72,1.0,6.0,84,0.00,,,1.06,0,Wunderground v.1.15,2013-09-18 03:28:00,
2013-09-17 23:34:00,81.3,76.0,29.96,ESE,122,0.0,8.0,84,0.00,,,1.06,0,Wunderground v.1.15,2013-09-18 03:34:00,
2013-09-17 23:40:00,81.4,75.7,29.96,East,88,2.0,2.0,83,0.00,,,1.06,0,Wunderground v.1.15,2013-09-18 03:40:00,
2013-09-17 23:46:00,81.4,75.7,29.95,ENE,67,2.0,7.0,83,0.00,,,1.06,0,Wunderground v.1.15,2013-09-18 03:46:00,
2013-09-17 23:52:00,81.5,75.8,29.96,ESE,105,2.0,4.0,83,0.00,,,1.06,0,Wunderground v.1.15,2013-09-18 03:52:00,
2013-09-17 23:58:00,81.6,76.3,29.96,ESE,114,2.0,7.0,84,0.00,,,1.06,0,Wunderground v.1.15,2013-09-18 03:58:00,